Home   Weather   Aurora   Past weeks
Flag for USA

Past Weather in Aurora, Colorado, USA — Yesterday and Last 2 Weeks

Now
88 °F

Scattered clouds.


Feels Like: 86 °F
Forecast: 92 / 62 °F
Wind: 20 mph from Northeast

Location: Buckley Air Force Base

Current Time: Jul 15, 2019 at 2:34:17 pm

Latest Report: Jul 15, 2019 at 1:58 pm


Visibility: 10 mi

Pressure: 29.90 "Hg (24.85 "Hg at 1647m altitude)

Humidity: 29%

Dew Point: 52 °F

Location of AuroraLocation

Past Weather in Aurora — Graph

°F

Aurora Temperature Yesterday

Maximum temperature yesterday: 88 °F (at 12:58 pm)
Minimum temperature yesterday: 66 °F (at 5:58 am)
Average temperature yesterday: 76 °F

High & Low Weather Summary for the Past Weeks

 TemperatureHumidityPressure
High96 °F (Jul 11, 2:58 pm)100% (Jun 30, 5:58 pm)30.24 "Hg (Jun 30, 5:58 pm)
Low53 °F (Jul 9, 5:58 am)13% (Jul 11, 1:58 pm)29.65 "Hg (Jul 3, 6:58 pm)
Average72 °F54%29.94 "Hg
* Reported Jun 30 12:58 pm — Jul 15 12:58 pm, Aurora. Weather by CustomWeather, © 2019

Note: Actual official high and low records may vary slightly from our data, if they occured in-between our weather recording intervals... More about our weather records

Advertising

Aurora Weather History for the Previous 24 Hours

Scroll right to see more
 ConditionsComfort  
Time TempWeatherWind HumidityBarometerVisibility
12:58 pm
Mon, Jul 15
89 °FScattered clouds.23 mph27%29.88 "Hg10 mi
11:58 am90 °FScattered clouds.8 mph26%29.88 "Hg10 mi
10:58 am85 °FPassing clouds.5 mph29%29.89 "Hg10 mi
9:58 am82 °FPassing clouds.3 mph34%29.91 "Hg10 mi
8:58 am77 °FPassing clouds.5 mph43%29.92 "Hg10 mi
7:58 am72 °FPassing clouds.9 mph49%29.93 "Hg10 mi
6:58 am64 °FPassing clouds.7 mph67%29.93 "Hg10 mi
5:58 am62 °FPassing clouds.8 mph67%29.92 "Hg10 mi
4:58 am64 °FPassing clouds.6 mph60%29.90 "Hg10 mi
3:58 am65 °FPassing clouds.7 mph60%29.91 "Hg10 mi
2:58 am66 °FPassing clouds.10 mph59%29.90 "Hg10 mi
1:58 am65 °FPassing clouds.9 mph66%29.93 "Hg10 mi
12:58 am67 °FPassing clouds.15 mph62%29.93 "Hg10 mi
11:58 pm
Sun, Jul 14
69 °FPassing clouds.14 mph57%29.93 "Hg10 mi
10:58 pm70 °FPassing clouds.12 mph58%29.96 "Hg10 mi
9:58 pm72 °FPartly cloudy.16 mph55%29.96 "Hg10 mi
8:58 pm74 °FPartly cloudy.8 mph54%29.97 "Hg10 mi
7:58 pm76 °FBroken clouds.7 mph50%29.95 "Hg10 mi
6:58 pm78 °FBroken clouds.9 mph44%29.96 "Hg10 mi
5:58 pm84 °FBroken clouds.8 mph34%29.95 "Hg10 mi
4:58 pm86 °FBroken clouds.5 mph31%29.94 "Hg10 mi
3:58 pm81 °FPartly sunny.7 mph37%29.96 "Hg10 mi
2:58 pm85 °FBroken clouds.16 mph34%29.97 "Hg10 mi
Weather by CustomWeather, © 2019

See weather overview

LIVE PARTIAL LUNAR ECLIPSE – Watch the eclipse as it happens